Alpena, MI

2:42 PM EST on February 26, 2017 (GMT -0500)
Alpena County Regional

Weather History for KAPN - January, 2014

Change the Weather History Date:

Saturday, January 18, 2014

  Actual Average Record
Temperature  
Mean Temperature 21 °F 19 °F  
Max Temperature 25 °F 26 °F 52 °F (1973)
Min Temperature 17 °F 11 °F -23 °F (1948)
Degree Days  
Heating Degree Days 44 46  
Month to date heating degree days 866 817  
Since 1 July heating degree days 4208 3878  
Moisture  
Dew Point 15 °F    
Average Humidity 73    
Maximum Humidity 84    
Minimum Humidity 62    
Precipitation  
Precipitation T in 0.05 in 0.57 in (1943)
Month to date precipitation 1.17 1.03  
Year to date precipitation 1.17 1.03  
Snow  
Snow T in 0.70 in 7.40 in (1943)
Month to date snowfall 8.5 12.6  
Since 1 July snowfall 35.5 39.9  
Snow Depth 9.00 in    
Sea Level Pressure  
Sea Level Pressure 29.83 in    
Wind  
Wind Speed 4 mph (West)    
Max Wind Speed 10 mph    
Max Gust Speed 14 mph    
Visibility 10 miles    
Events Snow    
T = Trace of Precipitation, MM = Missing Value Source: NWS Daily Summary

Daily Weather History Graph

Daily Weather History Graph

Search for Another Location

Airport or City:

Trip Planner

Search our weather history database for the weather conditions in past years. The results will help you decide how hot, cold, wet, or windy it might be!

Date:

Astronomy

Jan. 18, 2014 Rise Set
Actual Time 8:07 AM EST 5:22 PM EST
Civil Twilight 7:34 AM EST 5:55 PM EST
Nautical Twilight 6:58 AM EST 6:31 PM EST
Astronomical Twilight 6:23 AM EST 7:06 PM EST
Moon 8:12 PM EST (1/18) 8:58 AM EST (1/18)
Length of Visible Light 10h 20m
Length of Day
9h 15m
Waning Gibbous, 94% of the Moon is Illuminated
Jan 18
Waning Gibbous
Jan 24
Last Quarter
Jan 30
New
Feb 6
First Quarter
Feb 14
Full

Hourly Weather History & Observations

Time (EST) Temp. Windchill Dew Point Humidity Pressure Visibility Wind Dir Wind Speed Gust Speed Precip Events Conditions
12:54 AM 19.9 °F 14.9 °F 16.0 °F 85% 29.81 in 9.0 mi WSW 3.5 mph - 0.00 in Snow Light Snow
1:54 AM 19.0 °F - 16.0 °F 88% 29.81 in 10.0 mi Calm Calm - 0.00 in   Overcast
2:35 AM 19.0 °F 13.9 °F 15.1 °F 85% 29.79 in 10.0 mi WSW 3.5 mph - N/A   Overcast
2:54 AM 19.0 °F - 15.1 °F 85% 29.83 in 10.0 mi Calm Calm - N/A   Overcast
3:11 AM 19.0 °F - 15.1 °F 85% 29.80 in 10.0 mi Calm Calm - N/A   Overcast
3:54 AM 19.0 °F 11.1 °F 15.1 °F 85% 29.83 in 10.0 mi West 5.8 mph - N/A   Overcast
4:54 AM 19.0 °F 12.3 °F 14.0 °F 81% 29.84 in 10.0 mi WNW 4.6 mph - N/A   Overcast
5:05 AM 19.0 °F 11.1 °F 14.0 °F 81% 29.80 in 10.0 mi WNW 5.8 mph - N/A   Overcast
5:54 AM 19.0 °F 13.9 °F 14.0 °F 81% 29.85 in 10.0 mi West 3.5 mph - N/A   Overcast
6:54 AM 18.0 °F 12.7 °F 14.0 °F 84% 29.84 in 10.0 mi Variable 3.5 mph - N/A   Overcast
7:54 AM 18.0 °F 12.7 °F 14.0 °F 84% 29.85 in 10.0 mi West 3.5 mph - N/A   Overcast
8:54 AM 18.0 °F 12.7 °F 12.9 °F 81% 29.86 in 10.0 mi NW 3.5 mph - N/A   Overcast
9:31 AM 19.0 °F - 14.0 °F 81% 29.83 in 10.0 mi Calm Calm - N/A   Overcast
9:54 AM 19.0 °F - 12.9 °F 77% 29.88 in 10.0 mi Calm Calm - N/A   Overcast
10:54 AM 19.9 °F 13.4 °F 12.9 °F 74% 29.88 in 10.0 mi West 4.6 mph - N/A   Mostly Cloudy
11:54 AM 21.9 °F 14.5 °F 14.0 °F 72% 29.87 in 10.0 mi WSW 5.8 mph - N/A   Partly Cloudy
12:23 PM 25.0 °F 18.1 °F 15.1 °F 66% 29.82 in 10.0 mi NW 5.8 mph - N/A   Mostly Cloudy
12:54 PM 23.0 °F 13.1 °F 12.9 °F 65% 29.85 in 10.0 mi NW 9.2 mph - 0.00 in   Overcast
1:54 PM 24.1 °F 18.2 °F 14.0 °F 65% 29.83 in 10.0 mi NW 4.6 mph - N/A   Overcast
2:54 PM 24.1 °F 18.2 °F 14.0 °F 65% 29.84 in 10.0 mi WSW 4.6 mph - N/A   Overcast
3:37 PM 23.0 °F 17.0 °F 15.1 °F 72% 29.81 in 10.0 mi NW 4.6 mph - N/A   Overcast
3:54 PM 23.0 °F 17.0 °F 15.1 °F 72% 29.85 in 10.0 mi NNW 4.6 mph - N/A   Overcast
4:54 PM 21.9 °F 17.2 °F 15.1 °F 75% 29.85 in 10.0 mi North 3.5 mph - N/A   Overcast
5:54 PM 23.0 °F - 16.0 °F 74% 29.85 in 10.0 mi Calm Calm - N/A   Overcast
6:54 PM 21.9 °F 15.7 °F 15.1 °F 75% 29.85 in 10.0 mi SSW 4.6 mph - N/A   Overcast
7:54 PM 19.0 °F 12.3 °F 14.0 °F 81% 29.83 in 10.0 mi South 4.6 mph - N/A   Mostly Cloudy
8:54 PM 19.9 °F 11.1 °F 14.0 °F 78% 29.81 in 10.0 mi SSW 6.9 mph - N/A   Overcast
9:54 PM 21.0 °F 14.6 °F 14.0 °F 74% 29.79 in 10.0 mi SSW 4.6 mph - N/A   Overcast
10:54 PM 21.0 °F 13.4 °F 17.1 °F 85% 29.75 in 9.0 mi SSW 5.8 mph - N/A   Overcast
11:54 PM 21.0 °F 12.4 °F 17.1 °F 85% 29.72 in 10.0 mi SSW 6.9 mph - N/A   Overcast